Lapse_Rate
6.4 6.2 5.9 6.4 6.4 6.5 6.5 6.4 6.1 5.8 6.4 6.4 6.4 6.5 6.3 6.5 6.2 6.1 5.6 5.1 4.9 4.7 4.8 4.8 4.8 4.8 4.8 4.8 4.7 4.7 4.7 4.8 4.8 4.7 4.5 4.4 4.2 4.1 3.9 3.6 3.5 3.5 3.6 3.9
6.3 5.8 6.4 6.5 6.4 6.3 6.3 6.1 5.9 5.9 6.2 6.2 6.4 6.7 6.2 6.4 5.9 5.7 5.3 5.0 4.7 4.7 4.7 4.7 4.6 4.7 4.9 4.8 4.6 4.6 4.6 4.8 4.9 5.0 4.9 4.8 4.8 4.5 4.4 4.2 4.0 3.9 3.8 3.8
6.1 6.5 6.3 6.3 6.2 6.1 6.1 5.8 5.5 5.8 6.2 6.3 6.2 6.4 6.6 6.2 5.8 5.5 5.2 4.9 4.7 4.7 4.7 4.7 4.8 4.9 4.9 4.6 4.5 4.5 4.4 4.5 4.6 4.7 4.8 4.7 4.7 4.7 4.7 4.6 4.6 4.5 4.2 4.1
6.3 6.2 6.1 6.1 6.1 6.0 5.4 5.9 5.8 5.9 5.8 6.0 5.8 6.7 5.7 5.8 5.5 5.2 5.0 4.8 4.8 4.8 4.9 5.0 5.0 4.9 4.9 4.7 4.5 4.5 4.6 4.6 4.6 4.6 4.6 4.5 4.6 4.7 4.8 5.1 5.0 4.9 4.6 4.4
6.3 6.2 6.1 6.0 6.0 5.8 5.8 5.8 5.9 5.8 5.3 4.6 5.1 5.2 5.6 5.5 5.2 5.3 5.1 5.0 5.0 5.1 5.1 5.1 5.1 5.0 4.8 4.8 4.7 4.7 4.7 4.7 4.6 4.6 4.6 4.7 4.6 4.6 4.5 4.6 4.6 4.8 5.0 4.8
6.2 6.2 6.1 6.1 5.8 5.8 5.7 5.7 5.8 5.4 4.5 5.1 5.8 5.3 6.1 5.6 5.6 4.9 5.6 5.4 5.4 5.4 5.4 5.3 5.1 5.0 4.8 4.7 4.6 4.6 4.5 4.5 4.5 4.5 4.6 4.4 4.2 4.1 4.0 4.0 4.1 4.1 4.2 4.4
6.0 6.1 5.9 5.8 5.6 5.5 5.5 5.2 5.6 5.5 4.8 6.3 5.3 5.1 6.3 5.8 6.0 5.3 5.9 5.8 5.7 5.6 5.4 5.2 5.0 4.8 4.7 4.6 4.5 4.4 4.5 4.4 4.4 4.3 4.2 4.0 3.9 4.0 4.1 4.1 4.0 4.1 4.1 4.2
5.9 5.7 6.0 5.9 5.7 5.4 5.4 5.4 5.5 5.2 6.3 6.6 5.5 5.7 6.2 6.0 6.3 6.1 5.9 5.9 5.6 5.4 5.2 5.1 4.9 4.9 4.9 4.8 4.7 4.7 4.6 4.5 4.3 4.1 4.0 3.8 3.8 3.8 4.0 4.1 4.1 4.1 4.2 4.2
5.9 5.7 6.0 5.9 5.7 5.6 5.2 5.1 5.5 5.0 5.1 5.0 6.3 6.2 6.1 6.6 6.9 6.7 6.4 6.1 6.0 5.9 5.7 5.7 5.6 5.5 5.3 5.2 4.9 4.7 4.5 4.3 4.2 4.0 4.0 3.9 3.8 3.9 3.9 4.0 4.1 4.3 4.5 4.6
6.3 5.9 6.0 6.0 5.7 5.6 5.7 5.6 5.2 5.3 5.2 6.0 6.9 6.4 6.7 6.4 6.4 6.1 5.8 5.6 5.3 5.1 5.0 4.9 4.9 4.9 4.7 4.5 4.5 4.4 4.1 3.9 3.7 3.6 3.6 3.7 3.8 4.0 4.1 4.1 4.1 4.2 4.4 4.6
6.0 5.8 5.3 5.5 5.5 5.1 5.2 5.0 5.1 5.2 5.3 6.1 6.2 6.9 5.9 6.0 5.8 5.5 5.1 4.8 5.0 4.9 5.0 5.0 5.0 4.8 4.6 4.5 4.3 4.2 4.3 4.1 3.7 3.5 3.6 3.7 3.7 3.9 4.1 4.3 4.6 4.6 4.7 4.8
5.8 5.1 5.1 5.2 5.4 5.2 5.2 5.1 5.1 5.5 5.7 5.3 5.0 5.2 5.9 5.9 5.8 5.3 4.2 3.7 4.5 4.5 4.4 4.4 4.3 4.2 4.2 4.3 4.4 4.9 4.8 4.4 3.8 3.5 3.5 3.7 3.9 4.2 4.5 4.7 4.8 4.8 4.8 4.9
5.4 5.0 5.1 5.3 5.2 5.1 5.0 5.4 5.3 4.9 5.1 4.7 5.8 5.8 5.5 5.5 5.3 4.5 4.8 4.5 4.8 4.7 4.5 4.5 4.2 4.3 4.4 4.3 4.3 4.3 4.3 4.2 4.2 4.1 4.0 4.2 4.4 4.5 4.8 4.9 5.0 5.0 5.0 5.0
5.1 5.0 5.3 5.9 5.8 4.7 4.7 5.1 5.0 4.8 4.4 5.0 5.0 5.6 6.1 5.6 5.0 4.4 3.9 3.9 4.3 4.3 4.4 4.4 4.5 4.4 4.4 4.3 4.3 4.4 4.3 4.3 4.4 4.5 4.6 4.8 4.8 5.0 5.1 5.0 5.0 5.1 5.2 5.2
4.7 4.7 5.0 4.8 4.7 4.6 4.3 4.2 4.4 4.2 4.5 4.3 5.0 5.1 5.6 5.0 4.7 4.9 4.8 4.8 4.7 4.6 4.4 4.5 4.5 4.4 4.2 4.2 4.2 4.4 4.6 5.0 5.0 4.9 5.3 5.4 5.3 5.0 5.0 5.1 5.1 5.2 5.3 5.3
4.8 4.2 4.6 4.4 4.8 4.7 4.0 3.9 4.3 4.4 4.7 4.5 4.6 4.6 4.6 4.6 4.8 4.8 4.8 4.8 4.6 4.3 4.5 4.4 4.2 4.3 4.0 4.2 4.2 4.6 4.5 4.8 4.7 5.0 5.3 5.3 5.2 5.0 4.9 5.2 5.4 5.3 5.2 5.2
4.3 4.2 4.1 4.0 4.0 3.9 3.6 4.6 4.9 4.4 4.5 4.5 4.4 4.3 4.6 4.5 4.5 4.3 4.6 4.7 4.5 4.4 4.5 4.3 4.2 4.3 4.6 4.6 4.6 4.4 4.1 5.0 5.2 5.3 5.4 5.6 5.3 5.2 4.9 5.0 5.0 5.1 5.0 4.9
4.0 4.2 3.9 3.7 3.8 4.1 4.5 4.5 4.7 4.8 5.0 4.9 4.6 4.7 5.0 4.9 4.8 4.7 5.0 4.3 4.2 4.7 4.8 4.7 4.6 4.9 5.2 5.5 5.6 5.3 5.3 5.1 5.0 4.9 4.9 4.7 4.7 4.7 4.8 5.0 4.9 4.9 5.0 5.0
5.2 4.1 4.2 4.2 4.8 4.9 5.1 4.5 4.5 4.9 4.2 4.7 4.9 4.9 4.8 4.8 4.7 4.7 4.4 3.8 3.9 3.9 4.4 4.9 5.1 5.1 4.9 4.8 5.0 5.0 4.8 4.6 4.3 4.5 4.6 4.5 4.6 4.8 5.1 5.2 5.3 5.4 5.4 5.5
5.3 5.2 4.3 4.7 4.7 5.2 4.8 4.7 4.9 4.8 4.7 4.1 4.4 4.4 4.4 4.4 4.1 4.2 4.5 4.7 5.0 5.1 4.9 4.9 4.9 4.9 4.9 5.1 5.0 5.0 4.8 4.6 4.8 4.8 4.8 4.9 5.1 5.4 5.5 5.8 6.0 6.4 6.5 6.5
5.3 5.0 4.5 4.4 5.1 5.1 4.7 4.5 4.3 4.6 4.6 4.5 4.2 4.2 4.4 4.5 4.3 4.1 4.1 4.1 4.1 4.1 4.2 4.4 4.4 4.4 4.5 4.9 5.2 5.2 5.3 5.3 5.4 5.2 5.2 5.7 6.2 6.5 6.7 7.0 7.5 7.7 7.8 7.7
5.3 5.1 4.4 4.8 5.2 5.2 4.6 4.5 4.3 4.5 4.8 5.0 5.1 5.3 5.3 5.0 4.8 4.8 4.6 4.6 4.5 4.5 4.6 4.7 4.7 4.9 5.0 5.2 5.4 5.4 5.7 6.3 6.2 6.5 6.9 7.2 7.3 7.7 8.0 8.2 8.3 8.4 8.3 8.2
5.1 5.0 5.4 5.1 5.4 5.2 4.8 4.9 5.0 4.8 4.8 5.3 5.1 5.2 4.8 4.5 4.5 4.4 4.3 4.4 4.5 4.6 4.7 4.8 5.0 5.3 5.5 5.9 6.3 6.5 6.5 6.9 7.7 8.1 8.1 7.9 7.9 8.0 8.2 8.2 8.3 8.4 8.4 8.3
4.7 5.1 5.0 5.1 5.2 5.3 5.6 5.6 5.6 5.6 5.6 5.4 5.2 5.0 4.8 4.6 4.7 4.8 4.8 4.8 4.9 5.0 5.1 5.4 5.8 6.2 6.6 6.9 7.1 7.1 7.2 7.3 7.4 7.5 7.8 8.0 8.0 8.0 8.2 8.3 8.2 8.2 8.2 8.2
4.9 5.2 5.3 4.9 5.1 5.1 5.5 5.8 5.7 5.7 5.7 5.7 5.7 5.3 5.0 5.1 5.0 5.0 5.0 5.1 5.3 5.5 5.7 6.1 6.5 6.8 7.1 7.2 7.3 7.5 7.6 7.9 8.1 7.8 7.5 7.5 7.6 7.8 7.9 8.0 8.1 8.1 8.1 8.1
6.3 5.7 5.1 5.0 5.3 5.3 5.5 5.5 5.3 5.3 5.3 5.2 4.9 4.8 5.0 5.1 5.2 5.3 5.5 5.6 5.8 6.0 6.3 6.6 6.9 7.1 7.5 7.8 7.9 8.1 8.3 8.2 8.0 7.8 7.7 7.6 7.4 7.4 7.5 7.8 7.8 8.1 8.1 8.0
Wind_Speed
2 6 2 4 2 3 1 2 4 1 2 4 6 9 9 4 3 6 9 8 6 5 4 3 3 2 1 3 3 4 5 6 5 5 5 6 6 6 6 8 9 9 10 10
4 2 4 3 1 1 1 4 2 0 1 5 9 14 8 4 5 7 8 7 6 6 5 4 4 4 3 4 4 3 4 5 4 4 4 4 5 5 6 6 8 9 8 8
2 6 3 1 1 1 1 5 4 5 10 6 9 8 8 7 7 6 5 6 5 4 4 3 3 4 4 5 5 4 4 4 4 5 4 4 5 3 4 6 6 7 10 9
5 3 1 2 1 3 3 3 4 7 7 4 3 4 10 11 9 9 8 7 5 5 4 4 4 5 6 5 3 4 5 6 6 6 5 7 5 6 5 6 6 6 10 9
3 2 1 2 3 3 5 3 5 4 7 7 7 4 7 11 10 12 10 7 5 4 4 5 6 6 6 6 6 5 6 7 7 7 7 5 7 6 6 6 9 8 7 10
4 1 2 4 2 2 1 4 4 2 2 4 5 3 7 7 12 13 10 7 6 5 5 6 5 5 5 5 5 5 6 6 6 6 7 7 7 7 6 7 6 6 6 6
4 3 3 1 2 3 2 4 2 2 3 2 3 4 7 6 3 4 9 7 6 5 5 4 4 4 4 4 3 3 4 6 6 6 6 6 7 7 7 7 6 8 6 6
3 3 1 2 3 3 3 3 2 4 4 6 3 6 2 6 4 5 6 6 5 5 3 3 2 2 2 2 3 3 4 4 5 5 6 6 7 5 6 7 6 6 6 7
2 3 4 3 0 2 3 3 2 4 3 4 6 5 7 6 8 9 9 8 7 5 4 3 2 2 2 2 2 3 4 4 4 5 5 6 5 6 7 8 8 6 8 7
2 3 1 3 1 1 3 1 3 3 3 5 7 7 6 6 6 6 7 7 5 4 3 2 4 5 5 4 2 1 2 4 5 6 7 7 8 8 8 8 9 9 9 10
0 1 4 2 7 4 3 2 3 3 4 4 5 2 5 5 1 9 9 8 3 2 5 7 6 7 6 4 4 3 3 4 5 6 7 8 8 9 9 9 9 9 9 10
2 3 5 3 4 3 3 5 8 4 5 4 4 6 2 4 4 5 6 7 4 8 11 12 11 9 6 6 5 4 4 5 6 7 8 9 9 9 9 9 9 9 11 10
4 4 2 4 3 2 5 7 8 2 3 8 9 3 4 8 5 6 5 4 8 13 14 12 9 6 7 7 6 6 6 7 7 8 9 9 10 10 10 10 9 9 10 11
3 2 7 9 6 1 5 8 11 11 4 13 16 22 12 11 7 11 9 9 10 10 9 8 7 5 6 6 8 9 9 9 8 9 9 9 10 11 11 11 10 10 10 10
3 4 10 15 16 15 16 16 15 15 18 14 20 21 17 17 12 8 6 7 8 8 8 8 8 10 11 12 13 13 12 12 12 11 10 11 11 10 11 10 10 11 10 9
4 3 1 5 14 17 20 18 21 22 23 25 24 24 7 6 5 5 8 11 12 10 10 11 12 13 11 14 13 14 15 15 13 13 12 12 12 11 11 10 10 10 11 10
5 3 2 6 3 7 10 18 21 18 19 15 14 4 5 4 7 9 11 13 13 12 13 16 16 17 16 18 17 16 14 14 14 13 14 13 12 11 12 11 11 11 12 11
6 3 3 5 3 7 3 4 1 5 3 2 4 1 4 6 9 10 13 14 12 13 18 20 16 17 17 18 17 15 15 14 13 13 13 12 12 12 12 12 12 12 11 11
10 9 4 4 8 14 12 4 1 2 4 2 2 3 7 11 15 13 9 15 16 17 18 17 17 18 18 18 18 18 16 16 13 14 14 12 12 12 12 12 12 12 10 11
4 11 7 5 5 6 5 6 3 1 10 5 3 7 11 13 13 13 17 18 18 19 17 17 19 18 17 18 17 17 16 16 13 14 12 11 12 12 13 13 12 12 11 12
4 5 13 12 9 7 6 4 2 5 3 3 8 11 13 12 11 18 15 14 14 15 17 17 16 14 16 15 15 15 15 13 13 11 11 12 13 13 13 13 12 12 12 12
8 7 5 7 9 13 5 2 3 9 11 11 12 13 14 15 15 15 15 15 15 16 16 17 14 14 14 13 13 14 13 13 13 12 13 14 14 12 11 13 13 13 12 13
4 5 3 6 1 3 2 5 4 7 11 12 14 15 15 15 16 17 16 17 17 17 15 15 15 17 16 15 14 15 14 13 13 14 15 15 15 14 13 12 13 11 11 10
4 1 3 3 2 7 12 13 12 10 12 15 14 15 16 18 18 19 17 16 15 15 16 16 17 18 18 16 17 16 16 14 15 15 15 14 14 15 14 10 10 10 11 10
2 5 3 7 10 10 8 8 11 15 15 17 18 18 18 18 18 18 17 17 16 17 17 17 17 17 18 18 18 17 16 16 15 15 14 14 12 14 13 12 11 11 12 12
5 7 7 7 5 7 10 10 13 15 17 18 18 18 18 18 18 17 16 16 18 18 18 17 19 19 18 18 17 17 16 15 15 15 12 11 11 11 10 11 12 18 20 23
Wind_Direction
162 222 202 73 21 13 15 282 279 110 60 297 254 276 285 353 237 177 156 152 148 132 123 109 94 76 46 47 44 22 16 10 9 0 353 343 352 333 331 347 335 333 336 335
195 172 100 85 22 0 343 292 271 195 87 300 294 285 296 181 125 146 153 143 154 155 143 117 110 90 70 64 52 25 25 14 20 1 349 335 327 326 327 309 322 328 328 324
190 98 127 233 157 273 63 312 11 322 319 245 296 252 164 169 161 151 156 139 148 157 140 114 112 81 58 38 29 26 24 19 18 357 334 334 316 292 311 340 325 334 322 322
76 115 195 184 136 320 249 33 330 315 326 307 1 297 186 167 179 184 165 169 165 151 127 104 86 63 46 38 32 32 36 23 18 6 351 345 332 329 334 323 320 319 323 325
95 164 172 205 52 339 51 353 318 312 292 312 184 246 112 168 197 193 181 168 152 129 115 98 81 71 59 57 54 56 53 51 38 36 25 10 1 346 339 341 332 337 338 334
91 78 341 36 88 30 88 276 257 275 274 251 130 240 182 180 217 192 173 172 146 125 113 98 91 88 75 69 61 49 58 47 42 36 29 22 8 353 348 350 342 344 335 335
155 135 115 337 232 162 264 285 299 232 215 288 95 262 285 84 56 185 168 162 141 136 128 122 107 85 69 66 59 46 48 45 35 30 25 20 5 348 343 347 339 332 333 336
205 193 163 28 34 8 3 340 300 281 311 334 154 244 99 72 93 97 131 135 133 126 122 108 94 99 81 58 39 35 34 46 25 17 4 359 357 346 337 340 330 321 327 326
283 151 121 62 45 295 128 217 62 288 204 260 243 220 140 164 165 166 159 161 153 157 163 162 172 197 209 169 78 14 1 3 356 346 340 338 344 339 329 325 322 322 318 320
79 254 165 110 230 101 272 78 194 205 256 254 224 242 271 191 189 186 177 169 130 74 36 291 245 231 223 211 200 251 317 325 334 339 335 333 329 331 325 322 319 320 318 320
308 272 116 174 203 194 152 212 225 301 282 289 305 293 47 76 188 206 208 177 154 345 332 318 279 252 240 234 234 267 293 313 323 328 327 324 324 320 317 313 312 313 314 312
89 320 264 289 74 358 300 250 234 230 185 238 282 277 79 60 53 351 266 180 264 293 306 311 293 284 251 242 243 256 285 306 319 320 314 311 308 307 303 303 306 307 304 305
162 181 250 193 170 180 238 216 234 223 317 247 254 262 135 135 128 98 349 290 282 311 324 315 296 266 256 259 271 286 295 295 299 296 307 308 306 302 301 300 298 297 294 297
184 254 246 262 334 122 210 216 221 215 211 258 241 265 241 243 300 3 353 332 324 324 330 334 321 293 272 280 282 290 293 297 297 301 296 289 292 298 302 302 300 294 293 292
212 213 255 265 278 287 270 263 249 226 240 255 273 276 296 320 352 355 9 351 322 319 317 319 313 309 300 301 295 288 286 290 291 287 287 288 291 291 292 290 293 292 289 292
190 232 73 262 263 262 269 268 259 252 256 261 272 277 9 43 32 7 344 327 317 312 314 319 313 305 298 285 288 289 288 282 288 291 290 290 290 289 288 286 283 282 286 287
193 194 207 270 88 310 275 249 243 255 254 256 267 342 7 335 331 328 322 311 308 306 310 309 310 307 307 306 302 283 287 296 291 290 287 287 286 284 284 285 286 285 285 285
215 193 245 277 303 250 84 65 319 267 358 342 270 308 327 312 307 309 297 290 302 318 317 311 306 306 301 298 296 304 302 293 291 285 283 284 283 283 284 285 282 282 283 284
231 235 244 251 237 286 289 108 2 307 197 167 260 287 314 318 313 294 320 347 324 312 308 305 304 302 303 301 299 293 290 287 290 289 284 287 289 285 283 280 281 284 284 281
222 231 220 213 257 276 92 105 56 291 276 118 333 310 316 321 306 308 338 320 311 307 306 306 305 307 306 302 300 301 294 289 289 288 298 297 288 281 277 279 281 281 279 277
156 197 216 226 243 265 113 98 87 254 13 307 306 299 302 295 295 307 314 308 307 307 307 307 305 299 303 308 304 297 294 290 286 292 288 282 280 279 275 274 274 274 275 276
184 189 199 229 249 256 96 140 287 351 320 311 311 308 300 295 298 303 306 310 310 307 308 307 303 300 301 299 297 289 283 281 285 289 279 277 279 278 275 270 271 272 272 275
227 237 247 219 40 97 257 297 327 299 299 304 304 302 292 289 289 293 297 298 298 297 297 299 294 296 294 288 284 282 280 279 280 280 280 282 279 276 275 270 267 268 266 265
214 258 245 281 182 321 332 325 314 325 310 308 301 295 290 288 288 290 291 291 293 291 293 297 296 293 291 292 290 285 286 287 285 281 279 275 276 279 279 276 272 267 265 261
16 162 227 274 283 287 283 314 313 309 305 298 293 290 288 287 287 287 286 291 293 292 292 291 291 289 289 289 287 284 287 287 287 288 285 282 276 273 273 270 271 268 266 267
197 233 232 259 312 292 291 302 302 295 294 292 291 288 286 284 281 286 289 288 287 290 294 293 290 287 286 288 288 285 284 288 289 288 283 277 278 278 276 275 275 268 266 269